Overview Statistics Trail Chart Weather Telemetry Raw packets
 

This is the latest recevied weather packets stored in our database for station/object WP3OF. If no packets are shown the sender has not sent any weather packets the latest 10 day(s).

<< 12 13 14 15 16 17 18 >>
Time Temp. Humidity Pressure Rain* Wind** Luminosity Snow
1788547326 28.33° C 84% 1017.2 hPa 0 mm - - -
1788547021 28.89° C 83% 1017.1 hPa 0 mm - - -
1788546715 28.33° C 82% 1017.3 hPa 0 mm - - -
1788546411 28.33° C 83% 1017.3 hPa 0 mm - - -
1788546106 28.89° C 80% 1017.3 hPa 0 mm - - -
1788545801 28.89° C 79% 1017.3 hPa 0 mm - - -
1788545495 28.89° C 80% 1017.5 hPa 0 mm - - -
1788545191 28.89° C 79% 1017.4 hPa 0 mm - - -
1788544881 28.33° C 78% 1017.5 hPa 0 mm - - -
1788544580 28.33° C 81% 1017.6 hPa 0 mm - - -
1788544278 28.33° C 81% 1017.4 hPa 0 mm - - -
1788543973 28.33° C 81% 1017.9 hPa 0 mm - - -
1788543670 28.33° C 81% 1017.8 hPa 0 mm - - -
1788543370 28.33° C 82% 1017.8 hPa 0 mm - - -
1788543065 28.33° C 82% 1017.9 hPa 0 mm - - -
1788542761 28.33° C 83% 1017.9 hPa 0 mm - - -
1788542460 28.33° C 82% 1017.9 hPa 0 mm - - -
1788542155 28.33° C 82% 1018.3 hPa 0 mm - - -
1788541851 28.33° C 81% 1018 hPa 0 mm - - -
1788541546 28.33° C 81% 1017.9 hPa 0 mm - - -
1788541242 28.33° C 81% 1017.9 hPa 0 mm - - -
1788540940 28.33° C 82% 1018.2 hPa 0 mm - - -
1788540634 28.33° C 81% 1018.4 hPa 0 mm - - -
1788540329 28.33° C 83% 1018.3 hPa 0 mm - - -
1788540026 27.78° C 83% 1018.3 hPa 0 mm - - -

* Rain latest hour (hover to see other rain measurements)
** Current wind speed in m/s (hover to see current wind gust speed)